Regional Weather Roundup
Issued by NWS

Home | Current Version | Previous Version | Text Only | Print | Product List | Glossary On
Versions: 1 2 3 4 5 6 7 8 9 10 11 12 13 14 15 16 17 18 19 20 21 22 23 24 25 26 27 28 29 30 31 32 33 34 35 36 37 38 39 40 41 42 43 44 45 46 47 48 49 50
000
ASPQ40 PGUM 161212
RWRPQ
WEATHER ROUNDUP FOR THE MARIANAS AND MICRONESIA
NATIONAL WEATHER SERVICE TIYAN GU
1000 PM CHST TUE SEP 16 2014

GUZ001>004-161300-
MARIANA ISLANDS-

CITY           SKY/WX    TMP DP  RH WIND       PRES   REMARKS
GUAM AIRPORT   PTCLDY    79  75  89 CALM      29.85R
ANDERSEN AFB   MOCLDY    79  75  89 S9        29.84R
ROTA AIRPORT   NOT AVBL
TINIAN AP      NOT AVBL
SAIPAN AP      HVY RAIN  73  73 100 SE7       29.88R FOG

$$

PMZ161-161300-
REPUBLIC OF PALAU-

CITY           SKY/WX    TMP DP  RH WIND       PRES   REMARKS
KOROR AP       MOCLDY    79  75  89 W14G20    29.75R
KOROR WSO      CLOUDY    81  75  83 W7        29.75R

$$

PMZ171>174-161300-
FEDERATED STATES OF MICRONESIA-

CITY           SKY/WX    TMP DP  RH WIND       PRES   REMARKS
YAP AIRPORT    CLOUDY    79  75  89 W14       29.69F
CHUUK AP       PTCLDY    79  77  94 VRB3      29.83S
POHNPEI AP     NOT AVBL
POHNPEI WSO    MOCLDY    79  75  89 SE3       29.86R
KOSRAE AP      NOT AVBL

$$

PMZ181-161300-
REPUBLIC OF THE MARSHALL ISLANDS-

CITY           SKY/WX    TMP DP  RH WIND       PRES   REMARKS
KWAJALEIN AP   CLEAR     81  73  78 E7        29.83F
MAJURO AP      NOT AVBL
MAJURO WSO     HVY RAIN  81  77  89 W13       29.83S

$$



USA.gov is the U.S. government's official web portal to all federal, state and local government web resources and services.